RLB858 RPNS-RPVM

Flight info

Callsign RLB858
Flight time 0h 34m
Altitude 16000
Route BAMPA BAMPA3P
Aircraft A319/M-SDE3FGHIRWY/LB1

Departure

Time 2026-04-12 01:01
Airport Siargao Airport (RPNS)

Arrival

Time 2026-04-12 01:35
Airport Mactan Cebu International Airport (RPVM)
Time Latitude Longitude Altitude Speed Heading
2026-04-12 00:51 9.85778 126.01579 16 ft 0 kts 99°
2026-04-12 00:55 9.85778 126.01580 16 ft 0 kts 110°
2026-04-12 00:55 9.85775 126.01581 16 ft 0 kts 168°
2026-04-12 00:56 9.85765 126.01574 16 ft 3 kts 221°
2026-04-12 00:56 9.85735 126.01555 16 ft 6 kts 192°
2026-04-12 00:56 9.85687 126.01547 16 ft 7 kts 189°
2026-04-12 00:56 9.85652 126.01521 16 ft 6 kts 240°
2026-04-12 00:57 9.85623 126.01480 16 ft 7 kts 217°
2026-04-12 00:57 9.85567 126.01466 16 ft 8 kts 189°
2026-04-12 00:57 9.85501 126.01455 16 ft 10 kts 190°
2026-04-12 00:57 9.85428 126.01442 16 ft 11 kts 189°
2026-04-12 00:58 9.85351 126.01429 16 ft 7 kts 190°
2026-04-12 00:58 9.85310 126.01421 16 ft 4 kts 190°
2026-04-12 00:58 9.85281 126.01424 16 ft 3 kts 159°
2026-04-12 00:58 9.85270 126.01416 16 ft 2 kts 277°
2026-04-12 00:59 9.85281 126.01412 16 ft 1 kts 21°
2026-04-12 00:59 9.85292 126.01417 16 ft 0 kts 15°
2026-04-12 01:00 9.85347 126.01428 17 ft 38 kts
2026-04-12 01:00 9.85890 126.01524 17 ft 117 kts 10°
2026-04-12 01:00 9.86833 126.01692 308 ft 148 kts 12°
2026-04-12 01:01 9.87819 126.01862 1077 ft 142 kts 11°
2026-04-12 01:01 9.88746 126.02011 1849 ft 136 kts
2026-04-12 01:01 9.89717 126.02145 2278 ft 148 kts
2026-04-12 01:01 9.90788 126.02288 2629 ft 168 kts
2026-04-12 01:02 9.92012 126.02455 3077 ft 186 kts
2026-04-12 01:02 9.93344 126.02457 3485 ft 209 kts 343°
2026-04-12 01:02 9.94589 126.01572 3957 ft 232 kts 314°
2026-04-12 01:02 9.95701 126.00292 4532 ft 250 kts 311°
2026-04-12 01:03 9.96882 125.98937 5161 ft 264 kts 311°
2026-04-12 01:03 9.98093 125.97562 6010 ft 268 kts 312°
2026-04-12 01:03 9.99343 125.96159 6909 ft 271 kts 312°
2026-04-12 01:03 10.00604 125.94754 7775 ft 274 kts 312°
2026-04-12 01:04 10.01890 125.93325 8637 ft 277 kts 312°
2026-04-12 01:04 10.03190 125.91883 9487 ft 280 kts 312°
2026-04-12 01:04 10.04494 125.90437 10305 ft 283 kts 311°
2026-04-12 01:04 10.05649 125.88788 10792 ft 298 kts 294°
2026-04-12 01:05 10.06088 125.86680 11135 ft 319 kts 270°
2026-04-12 01:05 10.05697 125.84441 11754 ft 329 kts 257°
2026-04-12 01:05 10.05122 125.82189 12584 ft 331 kts 257°
2026-04-12 01:05 10.04545 125.79932 13349 ft 334 kts 257°
2026-04-12 01:06 10.03966 125.77641 14090 ft 337 kts 257°
2026-04-12 01:06 10.03390 125.75348 14811 ft 341 kts 257°
2026-04-12 01:06 10.02806 125.73013 15447 ft 344 kts 257°
2026-04-12 01:06 10.02214 125.70634 15805 ft 346 kts 257°
2026-04-12 01:07 10.01628 125.68283 15884 ft 346 kts 256°
2026-04-12 01:07 10.01040 125.65916 15893 ft 346 kts 257°
2026-04-12 01:07 10.00448 125.63537 15897 ft 346 kts 257°
2026-04-12 01:08 9.99272 125.58798 15899 ft 346 kts 257°
2026-04-12 01:08 9.98686 125.56436 15900 ft 346 kts 257°
2026-04-12 01:08 9.98165 125.54340 15900 ft 346 kts 256°
2026-04-12 01:08 9.98098 125.54071 15900 ft 346 kts 256°
2026-04-12 01:09 9.97512 125.51714 15901 ft 346 kts 256°
2026-04-12 01:09 9.96915 125.49316 15914 ft 346 kts 256°
2026-04-12 01:09 9.96329 125.46961 15927 ft 346 kts 256°
2026-04-12 01:09 9.95738 125.44582 15937 ft 346 kts 256°
2026-04-12 01:10 9.95196 125.42405 15944 ft 346 kts 256°
2026-04-12 01:10 9.94581 125.39898 15953 ft 351 kts 256°
2026-04-12 01:10 9.93976 125.37438 15962 ft 353 kts 256°
2026-04-12 01:10 9.93378 125.35014 15972 ft 353 kts 256°
2026-04-12 01:11 9.92777 125.32577 15980 ft 353 kts 256°
2026-04-12 01:11 9.92171 125.30122 15985 ft 353 kts 256°
2026-04-12 01:11 9.91565 125.27673 15988 ft 353 kts 256°
2026-04-12 01:11 9.90943 125.25167 15990 ft 353 kts 256°
2026-04-12 01:12 9.90320 125.22662 15991 ft 353 kts 256°
2026-04-12 01:12 9.89702 125.20181 15992 ft 353 kts 256°
2026-04-12 01:12 9.89092 125.17732 15992 ft 353 kts 256°
2026-04-12 01:12 9.88452 125.15169 15992 ft 353 kts 256°
2026-04-12 01:13 9.87824 125.12650 15992 ft 353 kts 256°
2026-04-12 01:13 9.87219 125.10224 15992 ft 353 kts 256°
2026-04-12 01:13 9.86608 125.07778 15992 ft 353 kts 256°
2026-04-12 01:13 9.86005 125.05366 15992 ft 353 kts 256°
2026-04-12 01:14 9.85393 125.02912 15992 ft 353 kts 256°
2026-04-12 01:14 9.84791 125.00504 15992 ft 353 kts 256°
2026-04-12 01:14 9.84184 124.98078 15992 ft 353 kts 256°
2026-04-12 01:14 9.83579 124.95659 15992 ft 353 kts 256°
2026-04-12 01:15 9.82972 124.93233 15992 ft 353 kts 256°
2026-04-12 01:15 9.82359 124.90782 15992 ft 353 kts 256°
2026-04-12 01:15 9.81778 124.88462 15992 ft 353 kts 256°
2026-04-12 01:15 9.81145 124.85934 15992 ft 353 kts 256°
2026-04-12 01:16 9.80539 124.83513 15992 ft 353 kts 256°
2026-04-12 01:16 9.79928 124.81074 15992 ft 353 kts 256°
2026-04-12 01:16 9.79319 124.78644 15992 ft 353 kts 256°
2026-04-12 01:16 9.78717 124.76244 15992 ft 353 kts 256°
2026-04-12 01:17 9.78102 124.73792 15992 ft 353 kts 256°
2026-04-12 01:17 9.77494 124.71365 15992 ft 353 kts 256°
2026-04-12 01:17 9.76893 124.68971 15992 ft 353 kts 256°
2026-04-12 01:17 9.76280 124.66530 15992 ft 353 kts 256°
2026-04-12 01:18 9.75665 124.64072 15992 ft 353 kts 257°
2026-04-12 01:18 9.75263 124.61594 15991 ft 353 kts 265°
2026-04-12 01:18 9.75236 124.59090 15992 ft 353 kts 274°
2026-04-12 01:18 9.75500 124.56595 15993 ft 353 kts 277°
2026-04-12 01:19 9.75830 124.54135 15993 ft 353 kts 278°
2026-04-12 01:19 9.76167 124.51672 15992 ft 353 kts 278°
2026-04-12 01:19 9.76502 124.49188 15955 ft 351 kts 278°
2026-04-12 01:19 9.76827 124.46738 15412 ft 354 kts 277°
2026-04-12 01:20 9.77153 124.44245 14629 ft 361 kts 277°
2026-04-12 01:20 9.77482 124.41710 14141 ft 358 kts 277°
2026-04-12 01:20 9.77801 124.39238 13690 ft 355 kts 277°
2026-04-12 01:20 9.78121 124.36756 13249 ft 351 kts 277°
2026-04-12 01:21 9.78436 124.34311 12817 ft 347 kts 277°
2026-04-12 01:21 9.78765 124.31741 12363 ft 343 kts 277°
2026-04-12 01:21 9.79088 124.29224 11918 ft 339 kts 277°
2026-04-12 01:21 9.79398 124.26807 11494 ft 335 kts 277°
2026-04-12 01:22 9.79697 124.24477 11081 ft 331 kts 277°
2026-04-12 01:22 9.79991 124.22183 10674 ft 328 kts 277°
2026-04-12 01:22 9.80281 124.19915 10279 ft 324 kts 277°
2026-04-12 01:22 9.80565 124.17694 10180 ft 309 kts 278°
2026-04-12 01:23 9.81110 124.15633 10097 ft 294 kts 295°
2026-04-12 01:23 9.82234 124.13958 9979 ft 282 kts 313°
2026-04-12 01:23 9.83634 124.12556 9633 ft 281 kts 317°
2026-04-12 01:23 9.85065 124.11224 9307 ft 278 kts 317°
2026-04-12 01:24 9.86500 124.09892 8989 ft 276 kts 317°
2026-04-12 01:24 9.87891 124.08589 8682 ft 273 kts 317°
2026-04-12 01:24 9.89282 124.07275 8375 ft 271 kts 317°
2026-04-12 01:24 9.90661 124.05966 8069 ft 269 kts 317°
2026-04-12 01:25 9.92024 124.04668 7768 ft 266 kts 317°
2026-04-12 01:25 9.93364 124.03390 7471 ft 264 kts 317°
2026-04-12 01:25 9.94711 124.02103 7173 ft 263 kts 317°
2026-04-12 01:25 9.96044 124.00830 6878 ft 261 kts 317°
2026-04-12 01:26 9.97362 123.99568 6584 ft 259 kts 316°
2026-04-12 01:26 9.98673 123.98313 6293 ft 257 kts 316°
2026-04-12 01:26 9.99959 123.97082 6007 ft 256 kts 316°
2026-04-12 01:26 10.01218 123.95877 5726 ft 255 kts 316°
2026-04-12 01:27 10.02480 123.94669 5445 ft 253 kts 317°
2026-04-12 01:27 10.03762 123.93443 5160 ft 252 kts 317°
2026-04-12 01:27 10.05047 123.92213 4875 ft 250 kts 317°
2026-04-12 01:27 10.06319 123.90997 4591 ft 249 kts 317°
2026-04-12 01:28 10.07578 123.89789 4308 ft 248 kts 316°
2026-04-12 01:28 10.08806 123.88558 4033 ft 247 kts 315°
2026-04-12 01:28 10.09998 123.87337 3756 ft 246 kts 315°
2026-04-12 01:28 10.11207 123.86106 3624 ft 237 kts 315°
2026-04-12 01:29 10.12322 123.84979 3596 ft 223 kts 315°
2026-04-12 01:29 10.13435 123.83855 3558 ft 210 kts 317°
2026-04-12 01:29 10.14683 123.83109 3453 ft 198 kts 351°
2026-04-12 01:29 10.15999 123.83262 3444 ft 185 kts 25°
2026-04-12 01:30 10.16974 123.83997 3374 ft 166 kts 44°
2026-04-12 01:30 10.17755 123.84798 3267 ft 152 kts 46°
2026-04-12 01:30 10.18457 123.85540 3098 ft 143 kts 46°
2026-04-12 01:30 10.19144 123.86259 2972 ft 142 kts 46°
2026-04-12 01:31 10.19836 123.86968 2858 ft 142 kts 45°
2026-04-12 01:31 10.20534 123.87678 2627 ft 142 kts 45°
2026-04-12 01:31 10.21223 123.88373 2375 ft 140 kts 45°
2026-04-12 01:31 10.21920 123.89074 2195 ft 140 kts 45°
2026-04-12 01:32 10.22616 123.89774 2009 ft 140 kts 45°
2026-04-12 01:32 10.23316 123.90477 1820 ft 140 kts 45°
2026-04-12 01:32 10.23999 123.91162 1637 ft 139 kts 45°
2026-04-12 01:32 10.24689 123.91855 1451 ft 139 kts 45°
2026-04-12 01:33 10.25380 123.92548 1266 ft 138 kts 45°
2026-04-12 01:33 10.26067 123.93237 1082 ft 138 kts 45°
2026-04-12 01:33 10.26742 123.93914 900 ft 138 kts 45°
2026-04-12 01:33 10.27271 123.94447 744 ft 138 kts 45°
2026-04-12 01:34 10.27527 123.94707 661 ft 137 kts 45°
2026-04-12 01:34 10.28199 123.95401 461 ft 135 kts 44°
2026-04-12 01:34 10.28882 123.96049 279 ft 135 kts 44°
2026-04-12 01:34 10.29547 123.96726 113 ft 135 kts 44°
2026-04-12 01:35 10.30194 123.97372 44 ft 121 kts 45°
2026-04-12 01:35 10.30670 123.97858 44 ft 72 kts 44°
2026-04-12 01:35 10.30910 123.98099 44 ft 32 kts 44°
2026-04-12 01:35 10.31044 123.98228 44 ft 24 kts 39°
2026-04-12 01:36 10.31170 123.98309 43 ft 16 kts 22°
2026-04-12 01:36 10.31273 123.98343 43 ft 14 kts 15°
2026-04-12 01:36 10.31353 123.98348 43 ft 10 kts 342°
2026-04-12 01:36 10.31411 123.98299 43 ft 11 kts 313°
2026-04-12 01:37 10.31447 123.98240 43 ft 10 kts 267°
2026-04-12 01:37 10.31402 123.98183 43 ft 11 kts 224°
2026-04-12 01:37 10.31343 123.98123 43 ft 12 kts 224°
2026-04-12 01:37 10.31281 123.98061 43 ft 11 kts 224°
2026-04-12 01:38 10.31238 123.98000 43 ft 10 kts 270°
2026-04-12 01:38 10.31264 123.97955 43 ft 6 kts 317°
2026-04-12 01:38 10.31289 123.97922 43 ft 5 kts 268°
2026-04-12 01:38 10.31261 123.97887 43 ft 7 kts 223°
2026-04-12 01:39 10.31222 123.97850 43 ft 8 kts 223°
2026-04-12 01:39 10.31201 123.97829 43 ft 1 kts 224°
2026-04-12 01:39 10.31200 123.97829 43 ft 0 kts 224°